Total_Precipitation_Accumulation
3.11 3.22 3.78 3.60 2.99 2.86 2.93 2.89 2.95 2.85 2.87 2.97 2.95 2.83 2.70 2.63 2.45 2.48 2.48 2.49 2.51 2.60 2.74 2.81 2.77 2.67 2.59 2.45 2.41 2.56 2.59 2.46 2.73 2.81 2.88 2.86 2.80 2.86 2.97 3.03 3.07 2.19 1.94
2.54 2.53 3.05 3.04 2.80 2.83 2.78 2.83 2.87 2.72 2.70 2.84 2.90 2.78 2.62 2.49 2.47 2.44 2.41 2.50 2.56 2.59 2.76 2.78 2.49 2.34 2.20 2.08 2.17 2.44 2.55 2.56 2.84 3.05 3.20 3.19 3.15 3.15 3.20 3.20 3.18 2.09 1.94
2.05 2.02 2.28 2.54 2.43 2.54 2.55 2.46 2.50 2.45 2.50 2.64 2.71 2.75 2.72 2.58 2.54 2.46 2.36 2.54 2.64 2.53 2.62 2.49 2.23 2.10 1.95 1.84 1.97 2.40 2.57 2.79 3.27 3.49 3.80 3.35 2.91 3.32 3.28 3.20 2.87 2.11 1.97
1.71 1.76 1.83 2.25 2.25 2.11 2.03 2.10 2.30 2.25 2.22 2.33 2.54 2.76 2.85 2.83 2.71 2.63 2.53 2.68 2.69 2.51 2.60 2.41 2.14 1.88 1.73 1.74 1.98 2.30 2.50 2.84 3.35 3.86 4.09 3.16 2.38 2.77 2.85 2.72 2.62 2.23 2.01
1.46 1.57 1.83 1.99 1.97 1.84 1.78 1.87 2.09 2.00 2.03 2.12 2.25 2.55 2.75 2.83 2.96 2.91 2.70 2.66 2.50 2.43 2.44 2.29 2.02 1.76 1.60 1.66 1.95 2.16 2.31 2.83 3.47 3.65 3.19 3.04 2.77 2.64 2.45 2.40 2.43 2.19 1.92
1.29 1.40 1.63 1.80 1.72 1.61 1.61 1.76 1.92 1.91 1.96 2.00 2.03 2.37 2.55 2.54 2.61 2.67 2.63 2.46 2.31 2.26 2.24 2.32 1.98 1.75 1.67 1.75 1.97 2.08 2.28 2.80 3.19 2.81 2.45 2.56 2.32 2.39 2.36 2.45 2.49 2.31 1.96
1.28 1.43 1.52 1.68 1.62 1.59 1.64 1.66 1.76 1.92 1.91 1.88 1.99 2.30 2.44 2.44 2.54 2.51 2.38 2.14 2.00 2.10 2.12 2.17 1.99 1.76 1.66 1.75 1.83 1.94 2.31 2.71 2.57 2.25 2.27 2.47 2.00 1.91 2.27 2.59 2.83 2.65 2.21
1.11 1.30 1.41 1.56 1.60 1.59 1.58 1.57 1.64 1.65 1.68 1.78 1.96 2.18 2.18 2.19 2.30 2.27 2.20 2.10 1.86 1.97 1.96 1.86 1.96 1.78 1.71 1.70 1.69 1.71 1.99 2.33 2.06 1.87 2.05 2.19 1.73 1.89 2.36 2.73 3.08 2.95 2.54
1.04 1.20 1.42 1.54 1.61 1.60 1.58 1.52 1.62 1.68 1.61 1.65 1.80 1.99 2.10 2.07 2.01 1.95 2.03 2.05 1.85 1.78 1.70 1.66 1.80 1.86 1.75 1.66 1.58 1.66 1.90 2.28 2.13 1.94 1.75 1.85 1.73 2.01 2.54 2.80 2.98 2.91 2.66
1.44 1.44 1.40 1.34 1.44 1.50 1.45 1.57 1.70 1.75 1.66 1.65 1.79 1.96 2.10 2.01 1.92 1.85 1.73 1.88 1.86 1.73 1.60 1.54 1.67 1.78 1.61 1.62 1.64 1.82 2.06 2.14 2.02 1.98 1.91 1.71 1.78 2.18 2.65 2.77 2.94 2.81 2.61
2.01 2.03 1.76 1.52 1.45 1.54 1.41 1.44 1.83 2.00 1.90 1.98 2.17 2.23 2.38 2.38 2.16 2.14 2.02 2.16 2.04 1.97 1.89 1.83 1.80 1.94 1.74 1.58 1.75 2.01 2.01 1.98 2.35 2.41 1.94 1.65 1.95 2.54 2.83 2.89 2.88 2.72 2.61
2.45 2.48 2.13 1.84 1.58 1.43 1.24 1.53 1.95 1.95 2.11 2.29 2.47 2.37 2.64 2.85 2.69 2.15 2.42 2.79 2.72 2.67 2.49 2.42 2.30 2.07 1.98 1.83 2.23 2.55 2.10 2.31 2.66 2.55 2.08 1.99 2.49 3.02 3.39 3.33 2.97 2.64 2.48
2.78 2.65 2.24 1.99 1.80 1.53 1.60 1.59 1.85 2.19 2.50 2.42 2.28 2.31 2.69 2.61 2.41 2.40 2.62 2.81 2.96 2.81 2.66 2.67 2.73 2.44 2.59 2.98 3.12 2.90 2.42 2.53 2.67 2.63 2.33 2.36 2.98 3.68 4.05 3.85 3.33 2.89 2.60
2.91 2.65 2.31 2.05 1.88 1.78 1.74 1.73 1.87 2.01 2.24 2.33 2.45 2.41 2.64 3.07 3.03 2.96 3.09 3.06 3.13 3.23 3.58 3.37 3.44 3.18 3.10 3.10 3.20 3.00 2.76 2.85 2.90 3.18 3.27 3.12 3.41 3.87 4.39 4.29 3.74 3.29 3.07
3.07 2.87 2.58 2.22 2.20 2.15 2.30 2.41 2.09 2.14 2.24 2.50 2.82 2.80 2.84 3.24 3.23 3.19 3.22 3.34 3.13 3.17 3.43 3.74 3.56 3.60 3.67 3.43 3.03 2.88 3.02 3.08 3.18 3.25 3.36 3.58 3.48 3.62 4.29 4.50 4.14 3.74 3.56
3.56 3.52 3.22 2.81 2.78 2.79 2.71 2.75 2.69 2.41 2.60 2.70 2.89 2.85 2.96 3.23 3.40 3.35 3.16 3.29 3.15 3.12 3.29 3.55 3.58 4.03 3.99 3.87 3.36 3.09 3.13 3.18 3.21 3.30 3.30 3.66 3.60 3.42 3.85 4.28 4.43 4.30 4.08
3.69 3.86 3.79 3.58 3.60 3.58 3.36 3.14 2.93 2.81 2.78 3.06 3.19 3.08 3.13 3.17 3.39 3.37 3.31 3.19 3.18 3.25 3.49 3.58 3.65 4.00 3.94 3.86 3.68 3.39 3.23 2.97 2.88 3.01 3.06 3.25 3.21 3.17 3.41 3.82 4.20 4.37 4.45
3.85 4.09 4.29 4.17 4.19 4.09 3.99 3.76 3.41 3.27 3.28 3.25 3.18 3.22 3.11 3.20 3.31 3.52 3.38 3.14 3.24 3.21 3.44 3.84 3.97 4.18 4.28 4.23 3.93 3.56 3.33 3.18 2.96 2.98 2.83 2.80 3.07 2.73 3.02 3.47 3.79 4.01 4.55
4.17 4.57 4.97 5.03 4.93 4.63 4.32 4.16 4.05 3.90 3.70 3.44 3.38 3.32 3.18 3.12 3.12 3.41 3.38 3.33 3.35 3.57 3.61 3.41 4.03 4.37 4.50 4.41 3.68 3.49 3.10 3.00 2.84 2.65 2.71 2.61 2.80 2.87 2.93 2.92 3.10 3.38 4.30
4.65 5.28 5.40 5.40 5.65 5.42 5.09 4.91 4.73 4.33 3.98 3.67 3.53 3.40 3.12 3.06 3.01 3.37 3.19 3.20 3.33 3.72 3.88 3.97 4.43 4.43 4.28 4.40 3.65 3.28 2.83 2.47 2.44 2.48 2.31 2.34 2.44 2.36 2.62 3.07 3.42 3.16 3.67
4.47 5.10 5.78 5.97 5.82 5.62 5.36 4.92 4.58 4.17 3.94 3.65 3.34 3.13 3.07 3.03 3.17 3.67 3.32 3.63 3.55 3.66 3.75 3.90 4.21 4.21 3.96 4.21 4.25 3.56 2.68 2.16 2.13 2.02 2.01 2.15 2.08 2.09 2.43 3.08 3.36 3.41 3.21
3.87 4.34 4.84 5.19 4.87 4.49 4.32 4.28 4.16 4.07 3.67 3.52 3.44 3.52 3.22 3.22 3.26 3.34 3.61 3.52 3.58 3.73 3.53 3.61 3.99 3.87 3.43 3.81 4.25 4.28 3.39 2.74 2.18 1.66 1.82 1.92 2.06 2.25 2.20 2.29 2.74 3.29 3.25
3.32 3.47 3.66 3.90 3.97 3.98 4.05 4.14 4.29 4.46 4.14 4.00 3.94 3.86 3.38 3.27 3.26 3.37 3.34 3.30 3.47 3.42 3.43 3.42 3.60 3.74 3.61 3.58 3.95 4.35 3.74 3.06 2.42 1.85 1.73 1.72 2.05 2.35 2.29 2.30 2.54 2.98 3.16
2.67 2.91 3.41 3.64 3.74 3.94 4.22 4.25 4.30 4.28 4.22 4.20 4.28 4.19 4.00 3.70 3.49 3.29 3.13 3.09 3.12 3.03 3.18 2.95 3.23 3.47 3.69 3.42 3.51 3.49 3.36 3.30 3.16 2.46 1.92 1.80 2.05 2.26 2.34 2.29 2.41 2.75 3.03
2.24 2.56 3.16 3.72 3.94 4.11 4.33 4.43 4.70 4.53 4.38 4.24 4.29 4.36 4.13 3.82 3.49 3.13 3.13 3.12 3.07 2.95 2.86 2.82 3.08 3.05 3.18 3.24 3.28 3.26 3.32 3.26 3.09 2.82 2.40 2.21 2.11 1.84 1.86 2.00 2.24 2.56 2.81
2.35 2.66 3.12 3.61 3.94 4.10 4.19 4.23 4.35 4.38 4.40 4.16 4.02 3.72 3.32 3.17 3.06 2.82 2.84 2.90 2.80 2.80 2.84 2.80 2.84 2.85 2.92 3.02 3.04 3.04 3.17 3.13 3.11 3.14 2.80 2.54 2.32 1.95 1.79 1.85 2.02 2.28 2.47